Date,TemperatureHighF,TemperatureAvgF,TemperatureLowF,DewpointHighF,DewpointAvgF,DewpointLowF,HumidityHigh,HumidityAvg,HumidityLow,PressureMaxIn,PressureMinIn,WindSpeedMaxMPH,WindSpeedAvgMPH,GustSpeedMaxMPH,PrecipitationSumIn
2014-1-1,19.8,17.2,16.3,19.3,16.7,15.8,98,98,98,30.20,30.08,6,0,0,0.00
2014-1-2,15.6,12.7,7.2,15.1,12.2,6.3,98,98,96,29.98,29.70,0,0,0,0.00
2014-1-3,10.2,2.7,-7.4,6.5,0.4,-10.0,97,90,80,30.26,29.91,0,0,0,0.00
2014-1-4,28.4,12.5,10.4,14.3,7.0,5.7,82,78,55,30.12,29.90,9,5,0,0.00
2014-1-6,19.2,-2.1,-13.2,18.7,-6.6,-19.3,98,81,72,29.94,29.55,14,5,0,0.00
2014-1-7,2.5,-6.3,-13.7,-4.5,-12.7,-20.1,78,73,62,30.21,29.94,11,5,0,0.00
2014-1-8,18.0,9.0,0.7,16.6,5.7,-4.5,94,86,77,30.33,30.20,6,2,0,0.00
2014-1-9,18.0,15.5,10.4,17.1,14.1,9.3,96,94,92,30.45,30.33,3,0,0,0.01
2014-1-16,23.7,23.2,22.1,21.7,19.7,16.6,93,86,78,29.79,29.77,7,4,0,0.00
2014-1-17,35.8,34.7,33.4,30.9,30.0,28.8,83,83,82,29.64,29.64,8,5,0,0.00
2014-1-18,16.3,12.4,9.7,11.9,9.1,5.1,92,86,80,29.82,29.70,8,1,0,0.00
2014-1-19,21.9,16.3,13.6,20.7,15.6,11.9,98,97,89,29.68,29.55,6,2,0,0.00
2014-1-20,18.5,15.6,13.8,18.0,14.9,12.4,98,97,94,29.84,29.80,4,1,0,0.00
2014-1-21,13.6,7.0,-1.8,12.6,3.8,-4.5,97,86,73,29.96,29.81,6,1,0,0.00
2014-1-22,9.3,-2.9,-13.7,6.6,-5.7,-17.3,95,88,77,29.95,29.84,0,0,0,0.00
2014-1-23,14.5,6.6,2.8,11.4,5.0,-0.1,98,93,82,30.27,29.83,5,0,0,0.00
2014-1-24,15.6,4.9,-3.6,6.1,0.2,-6.2,97,82,64,30.28,29.54,12,4,0,0.00
2014-1-25,18.9,14.6,8.6,18.4,12.6,6.3,98,92,65,29.55,29.21,16,6,0,0.00
2014-1-26,27.1,10.0,-6.7,24.8,8.0,-9.3,98,92,86,29.62,29.32,12,3,0,0.00
2014-1-27,14.2,7.0,0.5,13.7,4.7,-2.7,98,90,80,30.10,29.52,7,3,0,0.00
2014-1-28,6.4,-3.6,-11.7,-2.7,-8.9,-14.5,89,78,64,30.22,30.06,6,2,0,0.00
2014-1-29,13.1,1.2,-6.3,1.4,-6.1,-12.7,80,71,56,30.12,29.99,7,3,0,0.00
2014-1-30,23.2,9.6,7.3,8.6,2.1,0.4,75,71,53,30.12,30.02,8,4,0,0.00